This is the latest recevied weather packets stored in our database for station/object DL2AMT-9. If no packets are shown the sender has not sent any weather packets the latest 10 day(s).
| Time | Temp. | Humidity | Pressure | Rain* | Wind** | Luminosity | Snow |
|---|---|---|---|---|---|---|---|
| 1777813129 | 29.44° C | 23% | 968.3 hPa | - | - | - | - |
| 1777812829 | 29.44° C | 24% | 968.2 hPa | - | - | - | - |
| 1777812529 | 28.89° C | 25% | 968.4 hPa | - | - | - | - |
| 1777812229 | 28.33° C | 24% | 968.4 hPa | - | - | - | - |
| 1777811929 | 28.33° C | 25% | 968.4 hPa | - | - | - | - |
| 1777811629 | 28.33° C | 25% | 968.4 hPa | - | - | - | - |
| 1777811329 | 28.33° C | 25% | 968.5 hPa | - | - | - | - |
| 1777810729 | 28.89° C | 25% | 968.5 hPa | - | - | - | - |
| 1777810429 | 28.89° C | 25% | 968.5 hPa | - | - | - | - |
| 1777810129 | 28.89° C | 25% | 968.5 hPa | - | - | - | - |
| 1777809828 | 28.89° C | 25% | 968.6 hPa | - | - | - | - |
| 1777809528 | 28.89° C | 25% | 968.6 hPa | - | - | - | - |
| 1777809228 | 29.44° C | 25% | 968.7 hPa | - | - | - | - |
| 1777808928 | 30.56° C | 24% | 968.6 hPa | - | - | - | - |
| 1777808628 | 31.11° C | 24% | 968.6 hPa | - | - | - | - |
| 1777808328 | 31.67° C | 23% | 968.7 hPa | - | - | - | - |
| 1777808028 | 31.67° C | 26% | 968.8 hPa | - | - | - | - |
| 1777807728 | 30.56° C | 25% | 968.7 hPa | - | - | - | - |
| 1777807428 | 30.56° C | 24% | 968.9 hPa | - | - | - | - |
| 1777807127 | 32.78° C | 23% | 968.9 hPa | - | - | - | - |
| 1777806728 | 32.22° C | 26% | 969.2 hPa | - | - | - | - |
| 1777806427 | 31.11° C | 24% | 969.2 hPa | - | - | - | - |
| 1777806128 | 31.11° C | 26% | 969.2 hPa | - | - | - | - |
| 1777805827 | 30° C | 31% | 969.3 hPa | - | - | - | - |
| 1777805527 | 30.56° C | 30% | 969.4 hPa | - | - | - | - |
* Rain since midnight (hover to see other rain measurements)
** Current wind speed in m/s (hover to see current wind gust speed)